Time,TemperatureF,DewpointF,PressureIn,WindDirection,WindDirectionDegrees,WindSpeedMPH,WindSpeedGustMPH,Humidity,HourlyPrecipIn,Conditions,Clouds,dailyrainin,SolarRadiationWatts/m^2,SoftwareType,DateUTC
2013-03-27 00:00:00,55.5,43.1,30.31,SSE,158,1.0,5.0,63,0.00,,,0.00,0.00,VWS V14.00,2013-03-27 05:00:00,
2013-03-27 00:15:00,55.5,43.5,30.31,South,180,1.0,6.0,64,0.00,,,0.00,0.00,VWS V14.00,2013-03-27 05:15:00,
2013-03-27 00:30:00,55.6,43.2,30.31,SSE,158,1.0,5.0,63,0.00,,,0.00,0.00,VWS V14.00,2013-03-27 05:30:00,
2013-03-27 00:45:00,55.8,42.6,30.30,SSE,158,2.0,5.0,61,0.00,,,0.00,0.00,VWS V14.00,2013-03-27 05:45:00,
2013-03-27 01:00:00,55.9,42.7,30.30,SE,135,2.0,6.0,61,0.00,,,0.00,0.00,VWS V14.00,2013-03-27 06:00:00,
2013-03-27 01:15:00,55.8,42.6,30.29,SE,135,1.0,6.0,61,0.00,,,0.00,0.00,VWS V14.00,2013-03-27 06:15:00,
2013-03-27 01:30:00,55.8,43.0,30.29,SSE,158,1.0,5.0,62,0.00,,,0.00,0.00,VWS V14.00,2013-03-27 06:30:00,
2013-03-27 01:45:00,55.9,42.7,30.28,SSE,158,1.0,4.0,61,0.00,,,0.00,0.00,VWS V14.00,2013-03-27 06:45:00,
2013-03-27 02:00:00,55.9,43.1,30.28,South,180,1.0,6.0,62,0.00,,,0.00,0.00,VWS V14.00,2013-03-27 07:00:00,
2013-03-27 02:15:00,55.8,42.6,30.28,SE,135,1.0,5.0,61,0.00,,,0.00,0.00,VWS V14.00,2013-03-27 07:15:00,
2013-03-27 02:30:00,55.7,42.5,30.28,SSE,158,1.0,4.0,61,0.00,,,0.00,0.00,VWS V14.00,2013-03-27 07:30:00,
2013-03-27 02:45:00,55.1,42.3,30.27,SSE,158,0.0,3.0,62,0.00,,,0.00,0.00,VWS V14.00,2013-03-27 07:45:00,
2013-03-27 03:00:00,54.1,42.6,30.26,SSE,158,0.0,2.0,65,0.00,,,0.00,0.00,VWS V14.00,2013-03-27 08:00:00,
2013-03-27 03:15:00,53.0,42.7,30.26,SSE,158,0.0,2.0,68,0.00,,,0.00,0.00,VWS V14.00,2013-03-27 08:15:00,
2013-03-27 03:30:00,54.1,42.6,30.26,SE,135,1.0,4.0,65,0.00,,,0.00,0.00,VWS V14.00,2013-03-27 08:30:00,
2013-03-27 03:45:00,55.3,42.9,30.25,South,180,1.0,4.0,63,0.00,,,0.00,0.00,VWS V14.00,2013-03-27 08:45:00,
2013-03-27 04:00:00,55.8,42.6,30.25,South,180,1.0,5.0,61,0.00,,,0.00,0.00,VWS V14.00,2013-03-27 09:00:00,
2013-03-27 04:15:00,55.9,42.2,30.24,ESE,112,1.0,5.0,60,0.00,,,0.00,0.00,VWS V14.00,2013-03-27 09:15:00,
2013-03-27 04:30:00,56.0,41.9,30.25,SSE,158,1.0,5.0,59,0.00,,,0.00,0.00,VWS V14.00,2013-03-27 09:30:00,
2013-03-27 04:45:00,55.8,42.1,30.25,SSE,158,1.0,4.0,60,0.00,,,0.00,0.00,VWS V14.00,2013-03-27 09:45:00,
2013-03-27 05:00:00,55.4,42.2,30.25,SE,135,0.0,3.0,61,0.00,,,0.00,0.00,VWS V14.00,2013-03-27 10:00:00,
2013-03-27 05:15:00,55.2,42.8,30.25,SE,135,1.0,3.0,63,0.00,,,0.00,0.00,VWS V14.00,2013-03-27 10:15:00,
2013-03-27 05:30:00,54.0,43.7,30.25,SE,135,0.0,2.0,68,0.00,,,0.00,0.00,VWS V14.00,2013-03-27 10:30:00,
2013-03-27 05:45:00,52.7,43.2,30.25,SE,135,0.0,2.0,70,0.00,,,0.00,0.00,VWS V14.00,2013-03-27 10:45:00,
2013-03-27 06:00:00,51.3,42.6,30.25,SE,135,0.0,1.0,72,0.00,,,0.00,0.00,VWS V14.00,2013-03-27 11:00:00,
2013-03-27 06:15:00,50.5,42.2,30.25,SE,135,0.0,2.0,73,0.00,,,0.00,0.00,VWS V14.00,2013-03-27 11:15:00,
2013-03-27 06:30:00,51.1,42.4,30.25,ESE,112,1.0,3.0,72,0.00,,,0.00,0.00,VWS V14.00,2013-03-27 11:30:00,
2013-03-27 06:45:00,51.5,42.4,30.25,ESE,112,1.0,3.0,71,0.00,,,0.00,0.00,VWS V14.00,2013-03-27 11:45:00,
2013-03-27 07:00:00,50.6,41.6,30.25,ESE,112,0.0,2.0,71,0.00,,,0.00,0.00,VWS V14.00,2013-03-27 12:00:00,
2013-03-27 07:15:00,49.4,41.1,30.25,ESE,112,0.0,3.0,73,0.00,,,0.00,0.00,VWS V14.00,2013-03-27 12:15:00,
2013-03-27 07:30:00,49.0,41.4,30.26,East,90,1.0,2.0,75,0.00,,,0.00,5.00,VWS V14.00,2013-03-27 12:30:00,
2013-03-27 07:45:00,49.1,42.2,30.26,SSE,158,0.0,2.0,77,0.00,,,0.00,17.00,VWS V14.00,2013-03-27 12:45:00,
2013-03-27 08:00:00,49.4,42.8,30.26,WSW,248,0.0,2.0,78,0.00,,,0.00,31.00,VWS V14.00,2013-03-27 13:00:00,
2013-03-27 08:15:00,50.2,43.6,30.26,NNE,22,1.0,3.0,78,0.00,,,0.00,89.00,VWS V14.00,2013-03-27 13:15:00,
2013-03-27 08:30:00,51.1,43.8,30.27,NE,45,2.0,5.0,76,0.00,,,0.00,191.00,VWS V14.00,2013-03-27 13:30:00,
2013-03-27 08:45:00,53.1,45.4,30.27,NE,45,1.0,4.0,75,0.00,,,0.00,256.00,VWS V14.00,2013-03-27 13:45:00,
2013-03-27 09:00:00,55.6,46.7,30.28,East,90,1.0,4.0,72,0.00,,,0.00,317.00,VWS V14.00,2013-03-27 14:00:00,
2013-03-27 09:17:00,58.2,48.1,30.28,East,90,1.0,5.0,69,0.00,,,0.00,374.00,VWS V14.00,2013-03-27 14:17:00,
2013-03-27 09:30:00,62.0,48.4,30.28,SE,136,4.0,9.0,61,0.00,,,0.00,459.00,VWS V14.00,2013-03-27 14:30:00,
2013-03-27 09:45:00,63.0,48.0,30.29,ESE,112,4.0,11.0,58,0.00,,,0.00,486.00,VWS V14.00,2013-03-27 14:45:00,
2013-03-27 10:00:00,63.6,47.6,30.29,ESE,112,4.0,9.0,56,0.00,,,0.00,539.00,VWS V14.00,2013-03-27 15:00:00,
2013-03-27 10:15:00,64.1,48.1,30.29,ESE,112,4.0,11.0,56,0.00,,,0.00,591.00,VWS V14.00,2013-03-27 15:15:00,
2013-03-27 10:30:00,64.4,46.9,30.29,ESE,112,5.0,12.0,53,0.00,,,0.00,639.00,VWS V14.00,2013-03-27 15:30:00,
2013-03-27 10:45:00,64.6,47.1,30.29,ESE,112,5.0,12.0,53,0.00,,,0.00,685.00,VWS V14.00,2013-03-27 15:45:00,
2013-03-27 11:00:00,64.6,47.1,30.30,East,90,5.0,16.0,53,0.00,,,0.00,728.00,VWS V14.00,2013-03-27 16:00:00,
2013-03-27 11:15:00,64.9,46.9,30.30,ESE,112,6.0,15.0,52,0.00,,,0.00,765.00,VWS V14.00,2013-03-27 16:15:00,
2013-03-27 11:30:00,65.2,47.7,30.30,ESE,112,5.0,12.0,53,0.00,,,0.00,798.00,VWS V14.00,2013-03-27 16:30:00,
2013-03-27 11:45:00,65.1,47.1,30.30,East,90,6.0,15.0,52,0.00,,,0.00,829.00,VWS V14.00,2013-03-27 16:45:00,
2013-03-27 12:00:00,65.1,47.1,30.29,ESE,112,6.0,12.0,52,0.00,,,0.00,856.00,VWS V14.00,2013-03-27 17:00:00,
2013-03-27 12:15:00,65.4,46.8,30.29,ESE,112,6.0,14.0,51,0.00,,,0.00,879.00,VWS V14.00,2013-03-27 17:15:00,
2013-03-27 12:30:00,65.6,48.0,30.29,East,90,6.0,13.0,53,0.00,,,0.00,896.00,VWS V14.00,2013-03-27 17:30:00,
2013-03-27 12:45:00,65.6,48.0,30.29,ESE,112,6.0,13.0,53,0.00,,,0.00,911.00,VWS V14.00,2013-03-27 17:45:00,
2013-03-27 13:00:00,65.9,49.3,30.28,ESE,112,5.0,12.0,55,0.00,,,0.00,921.00,VWS V14.00,2013-03-27 18:00:00,
2013-03-27 13:15:00,65.9,49.3,30.28,ESE,112,6.0,15.0,55,0.00,,,0.00,927.00,VWS V14.00,2013-03-27 18:15:00,
2013-03-27 13:30:00,66.2,50.1,30.27,ESE,112,6.0,12.0,56,0.00,,,0.00,932.00,VWS V14.00,2013-03-27 18:30:00,
2013-03-27 13:45:00,66.0,50.3,30.27,ESE,112,6.0,13.0,57,0.00,,,0.00,789.00,VWS V14.00,2013-03-27 18:45:00,
2013-03-27 14:00:00,67.2,51.5,30.26,ESE,112,6.0,15.0,57,0.00,,,0.00,1171.00,VWS V14.00,2013-03-27 19:00:00,
2013-03-27 14:15:00,67.5,50.8,30.26,ESE,112,6.0,13.0,55,0.00,,,0.00,1082.00,VWS V14.00,2013-03-27 19:15:00,
2013-03-27 14:30:00,67.3,50.1,30.25,SE,140,4.0,11.0,54,0.00,,,0.00,842.00,VWS V14.00,2013-03-27 19:30:00,
2013-03-27 14:45:00,66.3,50.6,30.23,ESE,118,7.0,14.0,57,0.00,,,0.00,475.00,VWS V14.00,2013-03-27 19:45:00,
2013-03-27 15:00:00,65.9,51.2,30.22,East,90,5.0,15.0,59,0.00,,,0.00,497.00,VWS V14.00,2013-03-27 20:00:00,
2013-03-27 15:15:00,65.6,51.4,30.21,ESE,112,5.0,12.0,60,0.00,,,0.00,404.00,VWS V14.00,2013-03-27 20:15:00,
2013-03-27 15:30:00,65.2,51.9,30.21,ESE,112,5.0,13.0,62,0.00,,,0.00,384.00,VWS V14.00,2013-03-27 20:30:00,
2013-03-27 15:45:00,64.9,52.0,30.20,SE,135,4.0,13.0,63,0.00,,,0.00,299.00,VWS V14.00,2013-03-27 20:45:00,
2013-03-27 16:00:00,64.9,52.9,30.19,ESE,112,5.0,11.0,65,0.00,,,0.00,282.00,VWS V14.00,2013-03-27 21:00:00,
2013-03-27 16:15:00,64.7,52.7,30.18,ESE,112,5.0,12.0,65,0.00,,,0.00,312.00,VWS V14.00,2013-03-27 21:15:00,
2013-03-27 16:30:00,64.9,53.3,30.18,ESE,112,5.0,12.0,66,0.00,,,0.00,310.00,VWS V14.00,2013-03-27 21:30:00,
2013-03-27 16:45:00,64.5,52.9,30.18,ESE,112,5.0,15.0,66,0.00,,,0.00,269.00,VWS V14.00,2013-03-27 21:45:00,
2013-03-27 17:00:00,64.3,53.1,30.18,ESE,112,5.0,14.0,67,0.00,,,0.00,181.00,VWS V14.00,2013-03-27 22:00:00,
2013-03-27 17:15:00,64.2,53.0,30.17,ESE,112,5.0,11.0,67,0.00,,,0.00,218.00,VWS V14.00,2013-03-27 22:15:00,
2013-03-27 17:30:00,64.5,53.3,30.17,SE,135,5.0,14.0,67,0.00,,,0.00,221.00,VWS V14.00,2013-03-27 22:30:00,
2013-03-27 17:45:00,64.5,53.3,30.17,SE,135,4.0,11.0,67,0.00,,,0.00,195.00,VWS V14.00,2013-03-27 22:45:00,
2013-03-27 18:00:00,64.3,54.3,30.17,ESE,112,5.0,12.0,70,0.00,,,0.00,151.00,VWS V14.00,2013-03-27 23:00:00,
2013-03-27 18:15:00,64.2,53.8,30.17,SE,135,5.0,14.0,69,0.00,,,0.00,126.00,VWS V14.00,2013-03-27 23:15:00,
2013-03-27 18:38:00,64.1,53.7,30.17,ESE,112,4.0,11.0,69,0.00,,,0.00,77.00,VWS V14.00,2013-03-27 23:38:00,
2013-03-27 18:45:00,63.9,53.9,30.17,ESE,112,5.0,13.0,70,0.00,,,0.00,74.00,VWS V14.00,2013-03-27 23:45:00,
2013-03-27 19:00:00,63.8,53.8,30.17,SE,135,4.0,11.0,70,0.00,,,0.00,61.00,VWS V14.00,2013-03-28 00:00:00,
2013-03-27 19:15:00,63.7,54.1,30.17,ESE,112,4.0,12.0,71,0.00,,,0.00,36.00,VWS V14.00,2013-03-28 00:15:00,
2013-03-27 19:30:00,63.6,54.4,30.17,SE,135,4.0,11.0,72,0.00,,,0.00,16.00,VWS V14.00,2013-03-28 00:30:00,
2013-03-27 19:45:00,63.4,54.6,30.17,ESE,112,3.0,10.0,73,0.00,,,0.00,2.00,VWS V14.00,2013-03-28 00:45:00,
2013-03-27 20:04:00,63.4,55.0,30.16,SSE,158,4.0,9.0,74,0.00,,,0.00,0.00,VWS V14.00,2013-03-28 01:04:00,
2013-03-27 20:15:00,63.4,55.0,30.17,SSE,158,3.0,8.0,74,0.00,,,0.00,0.00,VWS V14.00,2013-03-28 01:15:00,
2013-03-27 20:30:00,63.4,54.6,30.17,SSE,158,3.0,10.0,73,0.00,,,0.00,0.00,VWS V14.00,2013-03-28 01:30:00,
2013-03-27 20:45:00,63.5,55.1,30.17,ESE,112,3.0,9.0,74,0.00,,,0.00,0.00,VWS V14.00,2013-03-28 01:45:00,
2013-03-27 21:00:00,63.5,55.4,30.18,SSE,158,2.0,5.0,75,0.00,,,0.00,0.00,VWS V14.00,2013-03-28 02:00:00,
2013-03-27 21:15:00,63.5,55.8,30.18,SSE,158,1.0,10.0,76,0.00,,,0.00,0.00,VWS V14.00,2013-03-28 02:15:00,
2013-03-27 21:30:00,63.5,56.2,30.18,SE,135,1.0,6.0,77,0.00,,,0.00,0.00,VWS V14.00,2013-03-28 02:30:00,
2013-03-27 21:45:00,63.5,56.5,30.18,ESE,112,1.0,5.0,78,0.00,,,0.00,0.00,VWS V14.00,2013-03-28 02:45:00,
2013-03-27 22:00:00,63.5,56.5,30.18,SSE,158,2.0,7.0,78,0.00,,,0.00,0.00,VWS V14.00,2013-03-28 03:00:00,
2013-03-27 22:15:00,63.5,56.9,30.19,ESE,112,1.0,5.0,79,0.00,,,0.00,0.00,VWS V14.00,2013-03-28 03:15:00,
2013-03-27 22:30:00,63.7,56.7,30.19,SE,135,2.0,6.0,78,0.00,,,0.00,0.00,VWS V14.00,2013-03-28 03:30:00,
2013-03-27 22:45:00,63.8,57.2,30.19,South,180,3.0,7.0,79,0.00,,,0.00,0.00,VWS V14.00,2013-03-28 03:45:00,
2013-03-27 23:00:00,63.8,57.5,30.19,SSE,158,3.0,7.0,80,0.00,,,0.00,0.00,VWS V14.00,2013-03-28 04:00:00,
2013-03-27 23:15:00,63.7,57.4,30.18,South,180,2.0,6.0,80,0.00,,,0.00,0.00,VWS V14.00,2013-03-28 04:15:00,
2013-03-27 23:30:00,63.7,57.4,30.18,SSE,158,2.0,6.0,80,0.00,,,0.00,0.00,VWS V14.00,2013-03-28 04:30:00,
2013-03-27 23:45:00,63.6,57.3,30.17,SSE,158,1.0,4.0,80,0.00,,,0.00,0.00,VWS V14.00,2013-03-28 04:45:00,